This is the latest recevied weather packets stored in our database for station/object W0PE-1. If no packets are shown the sender has not sent any weather packets the latest 10 day(s).
| Time | Temp. | Humidity | Pressure | Rain* | Wind** | Luminosity | Snow |
|---|---|---|---|---|---|---|---|
| 1778138152 | 15.56° C | 75% | 1016.6 hPa | 0 mm | - | - | - |
| 1778137246 | 15.56° C | 75% | 1016.6 hPa | 0 mm | - | - | - |
| 1778136347 | 16.11° C | 74% | 1016.7 hPa | 0 mm | - | - | - |
| 1778135449 | 16.11° C | 74% | 1016.8 hPa | 0 mm | - | - | - |
| 1778134544 | 16.67° C | 73% | 1016.8 hPa | 0 mm | - | - | - |
| 1778133651 | 16.67° C | 72% | 1016.7 hPa | 0 mm | - | - | - |
| 1778132749 | 16.67° C | 72% | 1016.9 hPa | 0 mm | - | - | - |
| 1778131852 | 17.22° C | 71% | 1016.8 hPa | 0 mm | - | - | - |
| 1778130943 | 17.22° C | 71% | 1016.7 hPa | 0 mm | - | - | - |
| 1778130042 | 17.22° C | 70% | 1016.6 hPa | 0 mm | - | - | - |
| 1778129154 | 17.78° C | 69% | 1016.5 hPa | 0 mm | - | - | - |
| 1778128241 | 17.78° C | 68% | 1016.5 hPa | 0 mm | - | - | - |
| 1778127340 | 18.33° C | 67% | 1016.5 hPa | 0 mm | - | - | - |
| 1778126440 | 18.33° C | 66% | 1016.4 hPa | 0 mm | - | - | - |
| 1778125543 | 18.33° C | 66% | 1016.2 hPa | 0 mm | - | - | - |
| 1778124639 | 18.89° C | 66% | 1016.1 hPa | 0 mm | - | - | - |
| 1778123739 | 18.89° C | 65% | 1015.8 hPa | 0 mm | - | - | - |
| 1778122838 | 19.44° C | 64% | 1015.7 hPa | 0 mm | - | - | - |
| 1778121941 | 19.44° C | 63% | 1015.5 hPa | 0 mm | - | - | - |
| 1778121036 | 20° C | 62% | 1015.4 hPa | 0 mm | - | - | - |
| 1778120136 | 20.56° C | 61% | 1015.3 hPa | 0 mm | - | - | - |
| 1778119244 | 21.11° C | 60% | 1015.2 hPa | 0 mm | - | - | - |
| 1778118336 | 21.67° C | 59% | 1015.1 hPa | 0 mm | - | - | - |
| 1778117435 | 21.67° C | 58% | 1014.9 hPa | 0 mm | - | - | - |
| 1778116533 | 22.22° C | 57% | 1014.9 hPa | 0 mm | - | - | - |
* Rain latest hour (hover to see other rain measurements)
** Current wind speed in m/s (hover to see current wind gust speed)